GW1690 Weather Reports


Display with metric or nautical units.
time (UTC)temp
F
wind
direction
speed
MPH
gust
MPH
rain 1hr
in
rain 24hr
in
rain mn
in
humidity
%
barometer
mb
20260502170521 59 357 5.0 7.0 0.00 0.00 0.00 44 1017.1
20260502164023 57 14 4.0 6.0 0.00 0.00 0.00 59 1033.0
20260502163522 58 14 3.0 5.0 0.00 0.00 0.00 56 1028.4
20260502163021 58 355 4.0 6.0 0.00 0.00 0.00 51 1020.9
20260502162521 59 355 5.0 7.0 0.00 0.00 0.00 47 1017.3
20260502162022 60 351 5.0 7.0 0.00 0.00 0.00 47 1017.5
20260502161524 60 358 5.0 7.0 0.00 0.00 0.00 48 1017.9
20260502161025 60 350 6.0 9.0 0.00 0.00 0.00 50 1019.2
20260502160522 60 9 6.0 8.0 0.00 0.00 0.00 49 1018.5
20260502152043 62 351 5.0 8.0 0.00 0.00 0.00 51 1020.2
20260502151520 61 2 5.0 9.0 0.00 0.00 0.00 52 1019.8
20260502151021 60 314 5.0 9.0 0.00 0.00 0.00 53 1021.4
20260502150520 60 343 5.0 8.0 0.00 0.00 0.00 54 1023.0
20260502130525 51 3 4.0 6.0 0.00 0.00 0.00 76 1035.1
20260502123529 49 358 4.0 4.0 0.00 0.00 0.00 80 1041.6
20260502123032 48 353 3.0 4.0 0.00 0.00 0.00 81 1042.9
20260502122530 48 12 3.0 4.0 0.00 0.00 0.00 82 1043.6
20260502122029 48 11 3.0 4.0 0.00 0.00 0.00 82 1044.3
20260502121550 47 3 3.0 3.0 0.00 0.00 0.00 83 1045.0
20260502121031 47 8 3.0 4.0 0.00 0.00 0.00 83 1045.3
20260502120532 47 16 3.0 4.0 0.00 0.00 0.00 83 1045.9
20260502115552 47 11 3.0 4.0 0.00 0.00 0.00 83 1046.2
20260502115031 47 10 3.0 3.0 0.00 0.00 0.00 84 1046.3
20260502114534 47 11 3.0 3.0 0.00 0.00 0.00 84 1046.0
20260502114030 47 4 3.0 3.0 0.00 0.00 0.00 84 1045.7
20260502113531 47 16 3.0 3.0 0.00 0.00 0.00 83 1045.1
20260502113030 47 16 3.0 3.0 0.00 0.00 0.00 83 1044.9
20260502112553 47 13 3.0 3.0 0.00 0.00 0.00 83 1044.8
20260502112031 47 8 3.0 3.0 0.00 0.00 0.00 83 1044.2
20260502111532 47 13 3.0 3.0 0.00 0.00 0.00 82 1043.8
20260502111030 47 12 3.0 3.0 0.00 0.00 0.00 82 1043.9
20260502110532 47 9 3.0 3.0 0.00 0.00 0.00 82 1043.4
20260502110031 47 10 3.0 3.0 0.00 0.00 0.00 82 1043.0
20260502105531 47 16 3.0 3.0 0.00 0.00 0.00 82 1043.2
20260502105031 47 12 3.0 3.0 0.00 0.00 0.00 82 1042.5
20260502104552 47 11 3.0 3.0 0.00 0.00 0.00 81 1042.2
20260502104052 47 12 3.0 3.0 0.00 0.00 0.00 81 1042.1
20260502103531 47 16 3.0 3.0 0.00 0.00 0.00 81 1041.6
20260502103032 48 16 2.0 3.0 0.00 0.00 0.00 81 1040.5
20260502102552 48 13 1.0 3.0 0.00 0.00 0.00 80 1039.6
20260502102032 48 16 2.0 3.0 0.00 0.00 0.00 80 1038.6
20260502101033 49 17 3.0 3.0 0.00 0.00 0.00 78 1035.8
20260502100534 49 8 1.0 3.0 0.00 0.00 0.00 77 1034.4
20260502091521 51 358 4.0 4.0 0.00 0.00 0.00 71 1032.7
20260502091020 51 350 4.0 4.0 0.00 0.00 0.00 71 1033.1
20260502090521 51 263 3.0 4.0 0.00 0.00 0.00 70 1033.5
20260502071522 53 345 4.0 5.0 0.00 0.00 0.00 64 1037.3
20260502071042 53 291 3.0 4.0 0.00 0.00 0.00 64 1036.9
20260502070523 53 288 3.0 5.0 0.00 0.00 0.00 63 1036.5
20260502070023 53 326 4.0 4.0 0.00 0.00 0.00 63 1036.1
20260502065523 53 298 3.0 5.0 0.00 0.00 0.00 63 1036.0
20260502065022 53 308 4.0 6.0 0.00 0.00 0.00 62 1035.5
20260502064524 53 11 4.0 5.0 0.00 0.00 0.00 61 1034.3
20260502064043 53 1 4.0 5.0 0.00 0.00 0.00 62 1035.2
20260502063523 53 349 4.0 5.0 0.00 0.00 0.00 62 1035.6
20260502063020 53 340 4.0 4.0 0.00 0.00 0.00 61 1033.9
20260502062520 52 300 3.0 4.0 0.00 0.00 0.00 62 1035.1
20260502062022 52 359 4.0 5.0 0.00 0.00 0.00 63 1035.8
20260502061540 52 355 4.0 5.0 0.00 0.00 0.00 63 1036.3
20260502061023 52 321 4.0 4.0 0.00 0.00 0.00 64 1037.0
20260502060523 52 322 4.0 5.0 0.00 0.00 0.00 65 1037.3
20260502060044 52 291 4.0 4.0 0.00 0.00 0.00 66 1037.5
20260502055522 52 319 4.0 4.0 0.00 0.00 0.00 66 1037.5
20260502055021 52 331 4.0 4.0 0.00 0.00 0.00 67 1037.5
20260502054541 52 354 4.0 4.0 0.00 0.00 0.00 66 1037.7
20260502054022 52 294 3.0 4.0 0.00 0.00 0.00 65 1037.5
20260502053522 52 356 3.0 4.0 0.00 0.00 0.00 64 1037.3
20260502053021 52 351 4.0 4.0 0.00 0.00 0.00 65 1037.5
20260502052523 52 1 4.0 5.0 0.00 0.00 0.00 64 1037.3
20260502052044 52 13 4.0 4.0 0.00 0.00 0.00 63 1035.9
20260502051521 52 352 4.0 4.0 0.00 0.00 0.00 64 1036.9
20260502051022 52 348 4.0 4.0 0.00 0.00 0.00 62 1035.3
20260502050521 52 304 4.0 4.0 0.00 0.00 0.00 60 1031.5
20260502050042 52 314 4.0 4.0 0.00 0.00 0.00 61 1032.7
20260502045521 52 353 4.0 4.0 0.00 0.00 0.00 62 1034.6
20260502045022 53 3 4.0 4.0 0.00 0.00 0.00 63 1036.1
20260502044522 53 335 4.0 4.0 0.00 0.00 0.00 64 1037.4
20260502044022 53 229 3.0 3.0 0.00 0.00 0.00 63 1035.7
20260502043524 53 292 3.0 4.0 0.00 0.00 0.00 61 1034.4
20260502043042 53 332 4.0 4.0 0.00 0.00 0.00 62 1035.3
20260502042523 53 285 3.0 4.0 0.00 0.00 0.00 64 1037.2
20260502042022 54 245 3.0 4.0 0.00 0.00 0.00 64 1037.6
20260502041524 54 228 2.0 4.0 0.00 0.00 0.00 61 1035.1
20260502041022 54 226 1.0 3.0 0.00 0.00 0.00 62 1035.0
20260502040524 54 226 1.0 3.0 0.00 0.00 0.00 64 1037.8
20260502040042 54 40 1.0 4.0 0.00 0.00 0.00 59 1032.3
20260502035543 54 224 1.0 4.0 0.00 0.00 0.00 58 1029.4
20260502035024 54 18 2.0 4.0 0.00 0.00 0.00 57 1027.6
20260502034520 54 32 2.0 4.0 0.00 0.00 0.00 59 1031.6
20260502034020 54 14 3.0 4.0 0.00 0.00 0.00 56 1026.7
20260502033520 54 36 1.0 4.0 0.00 0.00 0.00 58 1029.0
20260502033024 55 221 0.0 4.0 0.00 0.00 0.00 56 1026.6
20260502032525 55 269 3.0 4.0 0.00 0.00 0.00 54 1022.6
20260502032023 55 38 2.0 4.0 0.00 0.00 0.00 53 1021.9
20260502031524 55 12 2.0 4.0 0.00 0.00 0.00 55 1024.0
20260502031022 55 13 4.0 5.0 0.00 0.00 0.00 55 1024.0
20260502030542 55 352 4.0 4.0 0.00 0.00 0.00 55 1024.0
20260502030021 55 25 1.0 4.0 0.00 0.00 0.00 57 1028.4
20260502025520 55 347 3.0 4.0 0.00 0.00 0.00 56 1026.8
20260502025022 55 359 2.0 4.0 0.00 0.01 0.00 55 1025.2
20260502024521 55 217 1.0 3.0 0.00 0.01 0.00 55 1024.6
20260502024024 54 220 0.0 1.0 0.00 0.01 0.00 55 1024.1
20260502023523 54 299 3.0 4.0 0.00 0.01 0.00 54 1022.8
20260502023024 54 22 4.0 5.0 0.00 0.01 0.00 55 1023.3
20260502022541 54 333 4.0 4.0 0.00 0.01 0.00 56 1025.9
20260502022023 54 2 3.0 4.0 0.00 0.01 0.00 56 1026.7
20260502021523 54 221 0.0 3.0 0.00 0.01 0.00 57 1028.3
20260502021103 54 218 0.0 1.0 0.00 0.01 0.00 56 1025.9
20260502020521 54 220 1.0 3.0 0.00 0.01 0.00 56 1025.2
20260502020022 54 226 1.0 3.0 0.00 0.01 0.00 56 1025.2
20260502015522 54 13 1.0 4.0 0.00 0.01 0.00 53 1020.7
20260502015021 54 226 1.0 3.0 0.00 0.01 0.00 53 1021.4
20260502014523 54 239 3.0 4.0 0.00 0.01 0.00 49 1017.1
20260502014023 54 321 2.0 4.0 0.00 0.01 0.00 49 1016.8
20260502013542 55 258 2.0 4.0 0.00 0.01 0.00 50 1017.4
20260502013022 55 33 3.0 4.0 0.00 0.01 0.00 51 1018.1
20260502012523 55 36 2.0 4.0 0.00 0.01 0.00 48 1016.1
20260502012023 56 222 0.0 3.0 0.00 0.01 0.00 48 1015.9
20260502011523 56 25 3.0 4.0 0.00 0.01 0.00 46 1015.0
20260502011023 56 20 1.0 5.0 0.00 0.01 0.00 46 1015.1
20260502010522 57 28 3.0 5.0 0.00 0.01 0.00 44 1014.6
20260502010024 57 34 3.0 5.0 0.00 0.01 0.00 44 1014.6
20260502005520 57 38 3.0 5.0 0.00 0.01 0.00 43 1014.2
20260502005019 58 218 1.0 4.0 0.00 0.01 0.00 42 1014.0
20260502004522 58 221 1.0 4.0 0.00 0.01 0.00 41 1013.8
20260502004044 59 224 1.0 5.0 0.00 0.01 0.00 40 1013.7
20260502003523 59 224 3.0 6.0 0.00 0.01 0.00 41 1013.8
20260502003023 59 225 4.0 7.0 0.00 0.01 0.00 39 1013.7
20260502002523 59 225 5.0 7.0 0.00 0.01 0.00 39 1013.6
20260502002023 60 220 5.0 7.0 0.00 0.01 0.00 38 1013.6
20260502001520 60 208 3.0 6.0 0.00 0.01 0.00 38 1013.5
20260502001021 60 219 5.0 7.0 0.00 0.01 0.00 38 1013.5
20260502000522 60 223 5.0 7.0 0.00 0.01 0.00 37 1013.3
20260502000021 61 222 5.0 8.0 0.00 0.01 0.00 37 1013.3
20260501235520 61 223 5.0 9.0 0.00 0.01 0.00 38 1013.4
20260501235027 61 227 2.0 6.0 0.00 0.01 0.00 36 1013.2
20260501234525 61 223 1.0 6.0 0.00 0.01 0.00 37 1013.2
20260501234023 61 225 6.0 9.0 0.00 0.01 0.00 36 1013.1
20260501233521 61 226 6.0 9.0 0.00 0.01 0.00 37 1013.0
20260501233022 61 234 4.0 9.0 0.00 0.01 0.00 37 1013.0
20260501232522 62 225 2.0 6.0 0.00 0.01 0.00 37 1012.9
20260501232021 62 236 1.0 7.0 0.00 0.01 0.00 37 1013.0
20260501231521 62 223 1.0 3.0 0.00 0.01 0.00 38 1013.2
20260501231021 62 222 1.0 5.0 0.00 0.01 0.00 38 1013.0
20260501230522 62 221 2.0 5.0 0.00 0.01 0.00 38 1013.2
20260501230022 62 225 2.0 6.0 0.00 0.01 0.00 36 1012.9
20260501225522 62 224 2.0 5.0 0.00 0.01 0.00 36 1013.0
20260501225025 63 225 2.0 6.0 0.00 0.01 0.00 35 1012.9
20260501224524 63 222 2.0 7.0 0.00 0.01 0.00 36 1013.1
20260501224042 63 218 1.0 6.0 0.00 0.01 0.00 36 1013.3
20260501223523 63 220 1.0 1.0 0.00 0.01 0.00 34 1013.0
20260501223022 63 221 1.0 5.0 0.00 0.01 0.00 36 1013.2
20260501222523 63 218 3.0 7.0 0.00 0.01 0.00 34 1013.2
20260501222022 63 217 3.0 7.0 0.00 0.01 0.00 36 1013.3
20260501221519 63 213 2.0 7.0 0.00 0.01 0.00 36 1013.3
20260501221024 64 215 3.0 7.0 0.00 0.01 0.00 35 1013.4
20260501220524 64 228 4.0 9.0 0.00 0.01 0.00 35 1013.4
20260501220022 64 228 2.0 7.0 0.00 0.01 0.00 36 1013.7
20260501215522 63 225 2.0 8.0 0.00 0.01 0.00 37 1013.7
20260501215024 62 219 2.0 6.0 0.00 0.01 0.00 36 1013.5
20260501214523 61 222 1.0 1.0 0.00 0.01 0.00 38 1013.9
20260501214020 61 220 1.0 1.0 0.00 0.01 0.00 40 1014.0
20260501213521 61 224 3.0 8.0 0.00 0.01 0.00 41 1014.7
20260501213020 62 224 2.0 8.0 0.00 0.01 0.00 41 1014.4
20260501212520 62 226 3.0 9.0 0.00 0.01 0.00 37 1013.8
20260501212024 62 227 3.0 9.0 0.00 0.01 0.00 35 1013.9
20260501211526 62 232 3.0 9.0 0.00 0.01 0.00 37 1014.0
20260501211025 62 235 4.0 10.0 0.00 0.01 0.00 38 1014.1
20260501210524 62 234 3.0 11.0 0.00 0.01 0.00 37 1014.3
20260501210020 62 234 4.0 11.0 0.00 0.01 0.00 36 1014.2
20260501205520 62 230 3.0 9.0 0.00 0.01 0.00 36 1014.3
20260501205021 62 217 2.0 3.0 0.00 0.01 0.00 37 1014.4
20260501204522 62 216 1.0 3.0 0.00 0.01 0.00 39 1014.6
20260501204021 62 214 2.0 7.0 0.00 0.01 0.00 39 1014.8
20260501203521 62 224 2.0 7.0 0.00 0.01 0.00 38 1014.7
20260501203042 63 222 2.0 7.0 0.00 0.01 0.00 38 1014.9
20260501202541 63 222 3.0 10.0 0.00 0.01 0.00 37 1014.7
20260501202024 63 226 5.0 10.0 0.00 0.01 0.00 36 1014.6
20260501201521 63 190 2.0 5.0 0.00 0.01 0.00 37 1014.9
20260501201021 64 187 3.0 6.0 0.00 0.01 0.00 36 1014.8
20260501200521 64 211 3.0 9.0 0.00 0.01 0.00 37 1014.9
20260501200024 63 185 2.0 7.0 0.00 0.01 0.00 37 1015.1
20260501195522 63 205 3.0 5.0 0.00 0.01 0.00 40 1015.4
20260501195045 63 220 1.0 5.0 0.00 0.01 0.00 38 1015.3
20260501194523 63 218 2.0 6.0 0.00 0.01 0.00 38 1015.2
20260501194023 64 9 4.0 9.0 0.00 0.01 0.00 36 1015.0
20260501193540 64 323 5.0 9.0 0.00 0.01 0.00 37 1015.1
20260501193022 63 260 7.0 11.0 0.00 0.01 0.00 36 1015.0
20260501192523 63 228 4.0 7.0 0.00 0.01 0.00 39 1015.6
20260501192043 63 134 5.0 10.0 0.00 0.01 0.00 39 1015.4
20260501191523 63 67 6.0 10.0 0.00 0.01 0.00 37 1015.3
20260501191022 64 346 8.0 10.0 0.00 0.01 0.00 36 1015.1
20260501190543 64 273 4.0 10.0 0.00 0.01 0.00 37 1015.1
20260501190023 64 217 3.0 8.0 0.00 0.01 0.00 39 1015.6
20260501185523 64 260 3.0 7.0 0.00 0.01 0.00 38 1015.4
20260501185040 64 21 5.0 13.0 0.00 0.01 0.00 36 1015.2
20260501184521 64 356 7.0 13.0 0.00 0.01 0.00 35 1015.0
20260501184020 65 5 6.0 11.0 0.00 0.01 0.00 34 1014.8
20260501183520 65 348 6.0 11.0 0.00 0.01 0.00 34 1014.8
20260501183024 66 324 3.0 7.0 0.00 0.01 0.00 34 1014.8
20260501182522 65 346 3.0 8.0 0.00 0.01 0.00 35 1015.0
20260501182021 65 260 3.0 12.0 0.00 0.01 0.00 36 1015.1
20260501181520 64 297 3.0 10.0 0.00 0.01 0.00 37 1015.2
20260501181022 64 334 5.0 11.0 0.00 0.01 0.00 37 1015.1
20260501180601 64 358 5.0 11.0 0.00 0.01 0.00 38 1015.4
20260501180022 64 302 5.0 10.0 0.00 0.01 0.00 37 1015.3
20260501175521 64 360 4.0 11.0 0.00 0.01 0.00 38 1015.4
20260501175018 65 289 4.0 8.0 0.00 0.01 0.00 38 1015.4
20260501174518 65 312 2.0 8.0 0.00 0.01 0.00 37 1015.3
20260501174018 63 0.0 0.0 0.00 0.01 0.00 40 1015.6
20260501173025 63 251 2.0 8.0 0.00 0.01 0.00 40 1015.8
20260501172525 64 217 4.0 8.0 0.00 0.01 0.00 41 1015.9
20260501172022 64 280 2.0 10.0 0.00 0.01 0.00 40 1015.9
20260501171522 65 237 2.0 9.0 0.00 0.01 0.00 41 1016.2